Stampede Reservoir Weather Center

Moon Phase Calendar



Stampede Reservoir Water Level
Online Cameras

 


      

Current Conditions in Verdi
8/5/2021 5:24:19 AM

60°F
Feels Like 57
Clear
Humidity
31%
Pressure
30.03"
Wind
6.8 mph (SW)
Dew Point
30°F
UV Index
0/10 (Low)
Visibility
6 mi

Hourly Forecast

Date & Time Thu, Aug 5
5:00 AM
Thu, Aug 5
6:00 AM
Thu, Aug 5
7:00 AM
Thu, Aug 5
8:00 AM
Thu, Aug 5
9:00 AM
Thu, Aug 5
10:00 AM
Thu, Aug 5
11:00 AM
Thu, Aug 5
12:00 PM
Thu, Aug 5
1:00 PM
Thu, Aug 5
2:00 PM
Thu, Aug 5
3:00 PM
Thu, Aug 5
4:00 PM
Thu, Aug 5
5:00 PM
Thu, Aug 5
6:00 PM
Thu, Aug 5
7:00 PM
Thu, Aug 5
8:00 PM
Thu, Aug 5
9:00 PM
Thu, Aug 5
10:00 PM
Thu, Aug 5
11:00 PM
Fri, Aug 6
12:00 AM
Fri, Aug 6
1:00 AM
Fri, Aug 6
2:00 AM
Fri, Aug 6
3:00 AM
Fri, Aug 6
4:00 AM
Fri, Aug 6
5:00 AM
Fri, Aug 6
6:00 AM
Fri, Aug 6
7:00 AM
Fri, Aug 6
8:00 AM
Fri, Aug 6
9:00 AM
Fri, Aug 6
10:00 AM
Fri, Aug 6
11:00 AM
Fri, Aug 6
12:00 PM
Fri, Aug 6
1:00 PM
Fri, Aug 6
2:00 PM
Fri, Aug 6
3:00 PM
Fri, Aug 6
4:00 PM
Fri, Aug 6
5:00 PM
Fri, Aug 6
6:00 PM
Fri, Aug 6
7:00 PM
Fri, Aug 6
8:00 PM
Fri, Aug 6
9:00 PM
Fri, Aug 6
10:00 PM
Fri, Aug 6
11:00 PM
Sat, Aug 7
12:00 AM
Sat, Aug 7
1:00 AM
Sat, Aug 7
2:00 AM
Sat, Aug 7
3:00 AM
Sat, Aug 7
4:00 AM
Condition
Clear

Clear

Clear

Clear

Clear

Clear

Clear

Clear

Clear

Clear

Clear

Clear

Clear

Clear

Clear

Clear

Clear

Clear

Clear

Clear

Clear

Clear

Clear

Clear

Clear

Clear

Clear

Clear

Clear

Clear

Clear

Clear

Clear

Clear

Clear

Clear

Clear

Clear

Clear

Clear

Clear

Clear

Clear

Clear

Clear

Clear

Clear

Clear
Temperature 60°F59°F59°F64°F70°F75°F77°F78°F78°F78°F77°F76°F74°F72°F68°F59°F53°F51°F51°F51°F51°F50°F50°F50°F49°F49°F54°F63°F69°F74°F77°F80°F83°F84°F85°F84°F83°F81°F77°F66°F61°F59°F58°F57°F57°F57°F57°F56°F
Feels Like 57°F56°F56°F61°F68°F73°F75°F76°F76°F76°F75°F74°F72°F69°F66°F56°F49°F48°F48°F47°F47°F47°F49°F50°F49°F48°F51°F60°F67°F71°F75°F79°F80°F81°F82°F81°F80°F79°F75°F64°F58°F56°F55°F54°F54°F54°F53°F53°F
Cloudiness 1%1%1%0%0%0%0%0%0%0%0%0%0%0%0%0%0%0%0%0%0%0%0%0%0%1%3%5%4%3%3%0%0%0%0%0%1%9%5%4%3%4%4%5%5%5%5%6%
Visibility 6 mi6 mi6 mi6 mi6 mi6 mi6 mi6 mi6 mi6 mi6 mi6 mi6 mi6 mi6 mi6 mi6 mi6 mi6 mi6 mi6 mi6 mi6 mi6 mi6 mi6 mi6 mi6 mi6 mi6 mi6 mi6 mi6 mi6 mi6 mi6 mi6 mi6 mi6 mi6 mi6 mi6 mi6 mi6 mi6 mi6 mi6 mi6 mi
Precipitation 0%0%0%0%0%0%0%0%0%0%0%0%0%0%0%0%0%0%0%0%0%0%0%0%0%0%0%0%0%0%0%0%0%0%0%0%0%0%0%0%0%0%0%0%0%0%0%0%
Humidity 31%33%33%26%18%10%8%7%7%7%9%10%11%13%16%25%33%35%36%34%33%33%34%36%37%38%36%27%21%17%14%13%11%11%11%11%12%14%17%26%31%32%33%33%33%33%33%33%
Dew Point 30°F30°F30°F29°F26°F15°F10°F7°F7°F9°F12°F14°F15°F16°F20°F22°F23°F24°F23°F22°F22°F21°F22°F22°F23°F24°F26°F27°F27°F25°F24°F23°F23°F22°F23°F24°F25°F26°F28°F29°F29°F28°F28°F27°F27°F27°F27°F27°F
Pressure 30.03"30.03"30.03"30"29.97"29.94"29.94"29.94"29.94"29.91"29.91"29.91"29.91"29.94"29.94"30.03"30.09"30.12"30.12"30.12"30.12"30.12"30.09"30.09"30.12"30.12"30.12"30.06"30.03"30"30"29.97"29.94"29.88"29.88"29.88"29.88"29.88"29.88"29.97"30"30.03"30.03"30.03"30.03"30.03"30"30"
Wind Speed 6.8 mph6.7 mph6.4 mph7.3 mph12.5 mph16 mph17.7 mph18 mph18.4 mph18.3 mph18.3 mph17.4 mph16.8 mph16.2 mph13 mph7.2 mph5.9 mph6.2 mph6.2 mph5.9 mph5.2 mph4.4 mph3.1 mph2.8 mph3.2 mph3.4 mph3.4 mph1.6 mph2.4 mph3 mph3.6 mph3.9 mph3.7 mph3.3 mph2.9 mph2.9 mph4.2 mph6.8 mph8.9 mph6.2 mph5.8 mph5.5 mph5 mph4.4 mph4.3 mph4.3 mph4.3 mph4.5 mph
Wind
Direction
228°
SW
224°
SW
220°
SW
211°
SSW
207°
SSW
207°
SSW
217°
SW
223°
SW
229°
SW
233°
SW
241°
WSW
246°
WSW
249°
WSW
251°
WSW
252°
WSW
248°
WSW
242°
WSW
226°
SW
219°
SW
221°
SW
223°
SW
229°
SW
225°
SW
218°
SW
219°
SW
213°
SSW
200°
SSW
172°
S
69°
ENE
68°
ENE
70°
ENE
62°
ENE
62°
ENE
43°
NE

N
311°
NW
278°
W
266°
W
264°
W
251°
WSW
240°
WSW
227°
SW
228°
SW
227°
SW
224°
SW
222°
SW
219°
SW
217°
SW

Daily Forecast

Date High Low Precip. Humidity
Today
Aug 5

Clear
78 °F
51 °F
0%
7%
Friday
Aug 6

Clear
85 °F
49 °F
0%
11%
Saturday
Aug 7

Clear
88 °F
56 °F
0%
9%
Sunday
Aug 8

Clear
83 °F
55 °F
0%
13%
Monday
Aug 9

Clear
85 °F
54 °F
0%
14%
Tuesday
Aug 10

Clear
89 °F
56 °F
0%
13%
Wednesday
Aug 11

Clear
92 °F
58 °F
0%
12%
Thursday
Aug 12

Clouds
90 °F
60 °F
0%
14%
Friday
Aug 13

Clear
85 °F
55 °F
0%
16%
Saturday
Aug 14

Clear
78 °F
51 °F
0%
17%
Sunday
Aug 15

Rain
73 °F
50 °F
36%
41%
Monday
Aug 16

Clear
77 °F
48 °F
0%
18%
Tuesday
Aug 17

Clear
82 °F
47 °F
0%
14%
Wednesday
Aug 18

Clouds
87 °F
55 °F
0%
18%
Thursday
Aug 19

Clear
91 °F
59 °F
0%
15%
Friday
Aug 20

Clear
93 °F
63 °F
0%
13%

Temperature 8-14 Day Outlook



Precipitation 8-14 Day Outlook




Quick Links
Stampede Reservoir News
Stampede Reservoir Photos
Stampede Reservoir Videos




About Us
Contact Us
Site Map
Search Site
Advertise With Us
   
StampedeReservoir.LakesOnline.com
THE STAMPEDE RESERVOIR WEBSITE

Copyright 2021, Lakes Online
Privacy    |    Legal